星链-30047 (STARLINK-30047 )

导读 | 星芒AI

STARLINK-30047 是 SpaceX Starlink 项目中的一颗低轨通信卫星,属于第三代 Starlink 卫星(v1.5 或 v2 构型)。它于 2023 年发射,部署在约 550 公里的轨道高度,旨在为全球提供高速互联网服务。该卫星采用先进的推进系统和激光通信技术,提升网络性能与连接稳定性。作为 Starlink 卫星群的一部分,它支持偏远地区的宽带接入,并增强整体星座的冗余与覆盖能力。

基本信息
目录编号:
55709
目录名称:
STARLINK-30047
国际标识:
2023-026Q
轨道中心:
EARTH
卫星名称:
星链-30047
卫星全名:
星链-30047 (STARLINK-30047 )
卫星状态:
已陨落 最后检测时间 2024-08-30
发射日期:
2023-02-27 UTC
国别 :
美国 (US)
星等 :
--
轨道信息
数据来源 国际轨道数据
星历时间: 2024-08-29T20:49:38+0800
轨道信息已过期429天
半长轴: 6575.194km
偏心率: 0.0010271
轨道倾角: 42.985°
近地点辐角 259.821°
升交点赤经 211.829°
平近点角 180.838°
近地点: 190.305km
远地点: 203.813km
周期: 88.435分钟
每日圈数: 16.283207
详细信息
固有亮度:
5
最大亮度:
0.4
卫星平台:
Starlink v2.0 mini
覆盖范围:
全球
运营商:
太空探索技术公司
运营商所在国:
美国
制造商(研发单位):
太空探索技术公司
制造商所在国:
美国
使用方式:
暂无
卫星简介
星链(Starlink)计划是由太空探索技术公司(SpaceX)提出的一个巨型低轨卫星互联网星座项目,计划在2019年至2024年间在太空搭建由约1.2万颗卫星组成的“星链”网络,其中1584颗将部署在地球上空550千米处的近地轨道,并从2020年开始工作。该卫星仍在工作。